User: anonymous   Login
Location: Unspecified
(0.0000°N, 0.0000°E)
Time: 21:53:02
(UTC+00:00)
Language:

STARLINK-4101 - Orbit

View from above orbital plane
View from above orbital plane
View from above satellite
View from above satellite

Ground track
Ground track

The orbit is defined by the following mean orbital elements,

1 53142U          26145.55826171 +.00000000 +00000-0 +12525-4 0 00000
2 53142  53.2117 189.0180 0001246  65.2444 294.8678 15.08839214    06
Epoch (UTC): 25 May 2026 13:23:53
Eccentricity: 0.0001246
inclination: 53.2117°
perigee height: 539 km
apogee height: 541 km
right ascension of ascending node: 189.0180°
argument of perigee: 65.2444°
revolutions per day: 15.08839214
mean anomaly at epoch: 294.8678°

The dashed part of the orbit path shows where the satellite is in the earth's shadow,  

DLR